Find Starlink 32350

NORAD ID: 61063 Int'l Des: 2024-164 Owner: SPXS Country: US Constellation: starlink operational
LEOCIRCULAR

現在のビュー

3D地球を読み込み中...

About Starlink 32350

Starlink 32350 (NORAD 61063) is a starlink constellation satellite (v2 mini) launched Sep 13, 2024 by SPXS of US. It operates in LEO, CIRCULAR orbit with a mass of 730.00 kg.

Starlink 32350について

説明を読み込み中...

次回通過

Passes for default location (London). Set your location on the main map for personalized predictions.

高度履歴

Loading altitude history...

軌道要素

1 61063U 24164P 26171.42979874 -.00000661 00000-0 -95247-5 0 9997
2 61063 53.1611 333.4745 0001277 86.9362 273.1786 15.31696960 99216
Epoch: Jun 20, 2026 • Age: 35 hours

現在のステータス

高度 470.6 km
速度 7.63 km/s
衛星直下点 13.57°N, 95.93°W
打ち上げ日 Sep 13, 2024
運用期間 1.7 years
タイプ internet

技術仕様

分類 Payload
質量 730.00 kg
乾燥質量 700.00 kg
総質量 730.00 kg
長さ 0.30 m
直径 4.10 m
スパン 29.00 m
形状 Box + pan
製造者 SPXS
バスタイプ Starlink V2M
フェーズステータス In Orbit
所有者/国 SPXS/US

Most Searched